Weather in Achinery

Russia / Republic of Kalmykia     45°24′19″N   45°21′39″E
temp.,
°C
wind,
m/s
gust,
m/s
humid.,
%
clouds,
%
prec.,
mm/h
press.,
hPa
HPBL,
m
8 march, mon
mon800:00−1s365014 0.0 1022148
03:00−2ssw365211 0.0 1021165
06:00−2ssw59530 0.0 1021236
09:00+2wsw57390 0.0 1021808
12:00+5wsw45330 0.0 10191287
15:00+7wsw463617 0.0 10171668
18:00+4sw3454100 0.0 101761
21:00+2wsw345799 0.0 101863
9 march, tue
tue900:00+1wsw2368100 0.0 101732
03:000sw347091 0.0 101750
06:000wsw348287 0.0 101656
09:00+4wsw586381 0.0 1016790
12:00+7w91253100 0.1 10151707
15:00+8w9125098 0.1 10151837
18:00+3wnw71183100 0.7 1015919
21:00+2w4881100 0.8 1018302
10 march, wed
wed1000:000w349082 0.0 101889
03:000w4109090 0.0 1019310
06:00−1wnw6107795 0.0 1021332
09:00+1wnw796195 0.0 10231266
12:00+3wnw784999 0.0 10231572
15:00+4nw673878 0.0 10221774
18:00+1n4649100 0.0 1022361
21:00−1ne5858100 0.0 1023400
11 march, thu
thu1100:00−2ne6849100 0.0 1023572
03:00−2ene6748100 0.0 1023615
06:00−3ne6848100 0.0 1023751
09:00−3ne7942100 0.0 1025757
12:00−2ne7837100 0.0 10251033
15:00−2ne6733100 0.0 10251057
18:00−4ne5639100 0.0 10271047
21:00−5ne5638100 0.0 1028813
12 march, fri
fri1200:00−5ne6636100 0.0 1029880
03:00−7ne574064 0.0 1030614
06:00−8ne46400 0.0 1032562
09:00−7ene44330 0.0 1034746
12:00−5ne32260 0.0 10331090
15:00−3ene33220 0.0 10321190
18:00−5e34310 0.0 103180
21:00−6e35330 0.0 1032134